Theta_e
319 320 320 319 318 319 318 316 316 317 317 317 320 320 322 325 325 326 328 330 331 331 330 330 327 327 329 331 330 330 328 327 328 325 322 320 319 317 314 313 312 311 311 310
319 320 320 319 319 317 317 318 318 319 319 323 321 323 323 325 326 327 327 328 329 330 330 329 330 329 330 331 331 330 329 328 324 322 320 320 319 316 313 312 311 310 310 310
320 320 319 319 318 317 318 317 320 321 322 322 322 325 326 325 327 328 328 328 329 330 331 332 331 331 331 331 330 329 327 324 321 320 318 316 315 314 314 313 311 310 310 309
320 321 320 319 318 320 319 321 321 320 323 322 321 323 325 327 327 326 328 329 330 330 332 333 332 331 330 330 329 326 323 320 318 315 315 316 315 314 312 311 310 309 307 306
321 322 320 319 322 322 326 323 322 323 324 323 323 322 327 328 328 327 327 328 329 330 332 333 332 332 330 328 326 322 319 315 314 314 314 313 312 311 309 306 303 301 300 299
321 322 322 322 322 322 323 323 323 322 322 324 321 323 329 329 327 328 329 329 331 332 332 330 328 328 325 323 320 317 314 313 313 313 312 311 307 304 303 301 299 298 298 298
320 321 321 321 322 322 322 323 322 323 326 324 322 324 322 322 326 327 329 330 330 329 327 325 324 320 319 317 316 315 313 312 312 310 307 304 302 301 300 299 298 298 298 297
320 323 321 322 322 321 322 321 323 321 323 321 323 322 320 323 322 324 328 328 327 326 323 322 320 317 317 316 315 313 313 312 309 304 303 302 300 300 300 299 298 297 297 297
321 321 321 321 321 321 321 323 322 324 324 324 320 319 321 323 323 325 328 327 326 324 321 319 318 317 317 316 315 313 312 310 305 303 303 301 300 300 300 299 298 296 296 296
321 321 320 320 321 321 322 322 322 321 321 323 320 321 319 325 324 324 328 326 325 322 320 320 318 318 317 316 314 313 310 306 304 303 301 301 300 300 299 298 297 296 296 296
320 321 323 321 321 320 322 320 320 322 325 325 321 319 320 318 322 324 326 326 324 322 321 320 319 318 316 314 314 310 307 305 304 302 301 300 300 300 299 298 297 296 295 295
320 322 327 323 322 321 322 322 322 322 321 322 326 320 319 321 322 322 324 325 324 322 321 321 319 317 315 314 311 308 306 305 303 302 300 300 300 299 298 297 296 296 295 295
323 322 326 324 323 321 319 320 320 319 322 319 328 319 319 319 320 321 322 323 323 323 322 321 319 317 315 313 309 307 305 304 302 300 300 300 300 299 298 297 296 295 295 295
318 321 323 325 323 322 322 319 320 319 322 320 320 317 317 318 318 319 320 322 323 323 322 321 320 316 315 312 308 306 305 303 301 300 300 300 299 299 298 297 296 295 294 294
323 324 322 323 321 319 319 319 319 319 318 321 318 314 315 316 316 317 318 319 321 322 322 321 318 316 314 311 307 306 305 302 300 300 299 299 299 298 297 297 296 295 294 294
323 326 324 325 321 320 320 319 317 318 318 317 316 316 316 318 317 317 318 319 319 320 320 319 317 315 312 310 307 306 304 301 300 299 299 299 298 297 296 296 295 295 294 294
326 327 323 321 320 321 324 321 319 318 318 318 319 318 319 318 317 317 317 318 318 318 318 317 316 313 311 309 307 306 303 301 299 299 298 298 297 296 296 295 294 294 294 294
325 324 323 322 319 327 317 316 316 318 318 317 317 317 316 317 318 318 318 318 318 317 317 316 314 312 311 309 306 305 301 300 299 298 297 297 296 295 295 294 294 294 294 294
319 322 323 331 320 317 315 314 314 316 316 317 316 315 316 317 317 318 318 317 317 317 316 315 314 313 311 308 305 303 301 300 298 297 296 296 294 294 294 294 294 294 294 294
316 319 321 320 329 330 319 315 317 317 315 315 315 315 315 316 318 316 318 316 315 315 315 315 314 313 311 307 303 302 300 299 298 297 296 294 294 294 293 293 293 293 294 293
323 324 327 323 328 322 316 315 316 316 318 316 316 315 316 317 316 318 317 316 315 315 315 314 313 312 310 306 302 300 301 298 297 295 294 294 293 293 293 293 293 293 293 293
323 326 328 325 325 327 313 316 319 320 317 316 316 316 317 317 317 316 316 315 314 314 314 313 311 308 304 301 299 299 297 296 294 294 294 293 293 293 293 293 293 293 293 293
324 322 324 320 321 317 315 315 316 316 316 316 316 315 316 316 316 316 316 315 312 312 310 307 302 298 298 298 297 297 294 294 293 293 293 293 293 292 292 292 292 293 293 292
320 317 319 318 316 315 315 315 315 315 315 316 316 317 316 317 316 316 316 313 308 307 303 300 298 296 296 297 296 294 294 293 293 292 292 292 292 291 291 291 292 292 292 292
320 318 318 318 316 315 315 315 316 315 316 317 317 317 317 316 316 315 313 307 303 299 296 297 298 297 296 295 293 292 292 292 292 291 291 292 291 292 292 291 290 292 292 291
318 316 320 319 317 318 317 317 316 317 317 316 316 315 311 311 312 310 304 301 300 297 295 295 295 295 294 293 292 292 292 291 291 291 291 292 292 292 292 291 290 290 290 290
Wind_Speed
8 6 11 8 10 7 13 9 13 15 6 9 10 14 14 12 13 14 14 14 14 14 13 13 13 15 17 18 18 17 14 10 8 7 8 8 7 6 6 6 5 5 5 5
8 13 19 7 10 9 4 5 12 9 9 9 10 10 11 12 13 14 14 14 14 13 12 13 14 16 17 18 17 16 12 10 9 8 6 4 4 5 6 5 5 5 6 7
8 12 6 8 10 11 8 10 11 13 11 13 12 13 13 11 8 9 11 13 13 13 14 13 16 16 16 17 17 15 13 13 9 8 6 6 6 5 3 3 3 6 7 10
3 5 11 13 7 5 8 4 11 4 11 13 16 10 11 15 14 12 12 10 12 14 13 14 17 18 17 18 16 15 15 12 7 6 6 6 7 7 5 4 6 9 10 13
8 9 9 9 5 5 17 10 7 7 11 12 17 9 9 18 15 16 13 13 13 13 15 16 21 23 21 18 17 17 14 11 10 10 8 6 6 4 3 5 8 11 13 14
7 3 4 7 3 2 5 4 6 6 10 7 16 12 17 15 15 16 15 14 15 16 16 16 19 20 18 18 16 16 15 13 12 12 11 10 8 4 4 6 8 10 12 13
7 7 4 6 7 7 9 9 8 9 8 10 5 7 11 10 7 15 18 18 16 15 16 17 18 21 21 19 17 17 15 14 13 12 11 10 6 5 5 7 8 10 11 12
10 9 12 8 10 5 10 13 9 7 7 11 6 7 4 8 2 7 18 17 17 17 16 17 20 20 19 19 18 17 17 16 14 13 11 8 5 5 3 5 7 8 10 12
10 5 6 2 3 8 9 8 7 7 3 7 13 18 10 5 6 10 18 18 19 18 18 18 20 20 20 19 19 19 18 17 15 13 10 7 5 5 3 4 6 8 10 12
1 2 4 5 5 5 8 2 5 6 6 11 10 7 6 8 8 12 17 19 19 19 19 17 20 20 19 21 20 20 19 18 15 12 10 9 5 3 1 4 7 8 10 11
6 8 7 4 10 11 7 10 7 5 3 5 4 3 8 4 3 12 15 18 19 19 18 17 18 19 20 21 22 21 20 17 14 12 11 9 7 4 3 4 6 9 11 12
6 5 5 13 5 5 10 8 11 5 6 3 3 8 2 3 3 7 12 15 16 18 18 17 19 20 22 23 23 23 20 17 14 13 12 10 8 6 5 6 7 9 11 12
6 7 7 7 6 7 9 10 9 4 1 7 3 4 6 6 4 6 11 14 16 18 18 17 19 22 23 25 25 23 19 16 16 14 12 11 9 8 7 8 9 10 11 13
1 12 10 10 5 1 12 12 12 13 7 9 10 13 7 9 7 7 9 12 17 18 17 17 16 21 24 26 25 22 19 18 17 15 12 10 10 9 9 9 10 11 12 13
5 8 12 12 5 5 8 9 13 16 15 13 11 11 8 6 6 6 8 10 15 15 17 17 16 19 24 25 25 22 20 18 18 14 12 10 10 10 11 11 12 12 12 12
5 5 2 5 8 8 11 12 13 14 16 16 16 15 12 10 2 7 6 9 12 14 16 17 18 22 24 26 26 22 19 20 17 14 11 9 9 11 12 13 13 13 13 13
5 5 4 5 3 4 6 15 16 15 16 12 15 15 9 3 5 8 8 8 11 12 14 17 18 22 25 26 25 21 20 18 16 13 11 9 10 11 13 14 15 15 14 13
5 4 2 1 2 1 4 1 4 8 14 16 14 13 10 5 7 7 7 9 10 11 13 15 18 22 24 23 23 19 19 18 14 12 8 10 10 12 14 16 16 16 15 15
3 4 2 3 6 8 9 5 1 3 6 6 7 7 5 4 6 12 12 9 8 9 11 14 18 20 21 22 22 21 19 14 9 9 11 10 11 13 15 16 17 17 16 17
4 1 4 3 3 4 4 4 1 1 6 7 6 5 4 2 6 8 3 3 7 10 11 14 17 18 20 21 23 22 17 12 13 9 9 11 12 14 16 17 18 18 17 18
3 1 5 6 3 5 3 3 2 4 3 5 7 9 6 7 7 9 7 8 10 11 12 12 14 15 15 16 17 13 8 6 5 1 7 10 12 15 16 17 17 18 18 16
6 6 3 2 2 5 6 5 1 4 5 6 7 8 7 10 12 13 9 10 9 11 10 6 6 6 7 7 5 6 6 3 4 6 8 11 13 14 14 16 17 19 18 11
3 3 1 5 1 5 6 4 3 4 7 9 9 11 10 12 12 13 12 8 8 8 0 3 10 13 12 9 7 3 10 5 5 8 9 12 12 13 14 15 15 15 12 9
4 2 3 1 3 5 5 7 6 6 6 8 10 11 11 12 12 12 10 3 3 1 4 8 15 13 11 12 7 2 5 5 7 10 10 11 12 12 13 13 15 14 11 10
2 7 5 6 10 7 5 4 3 7 8 9 9 10 10 10 12 9 4 3 7 14 12 12 11 10 11 5 2 3 4 6 9 9 10 11 13 13 13 12 13 15 12 10
5 3 3 3 6 5 7 9 9 8 8 9 8 8 11 9 7 7 10 12 14 13 12 13 10 7 1 2 4 6 7 8 9 9 10 10 11 13 13 13 14 14 17 19
Wind_Direction
192 226 212 185 220 272 208 193 182 130 150 216 164 156 160 177 183 180 184 171 178 179 159 168 184 173 175 170 171 171 169 173 182 152 138 137 143 120 101 86 78 54 32 8
163 185 237 249 223 248 226 210 118 125 171 247 184 152 162 175 190 186 192 192 186 170 173 173 172 179 178 174 172 176 168 167 157 146 126 90 112 91 106 85 59 45 15 351
255 162 176 201 205 219 234 227 158 167 184 242 191 161 172 177 176 212 201 197 187 176 183 171 173 172 169 170 171 168 165 155 138 140 139 117 113 133 147 60 16 358 346 335
227 173 191 190 191 280 189 101 212 250 196 212 212 236 183 171 177 191 193 193 185 183 175 171 170 166 164 163 163 162 152 143 140 145 108 78 53 51 44 4 357 330 327 324
151 180 183 204 70 297 121 245 175 195 223 231 213 250 166 244 188 185 184 189 181 172 169 166 165 161 163 155 159 150 148 142 136 123 126 117 98 86 40 1 343 337 333 327
169 32 327 73 122 264 139 163 207 238 257 263 260 234 160 194 205 178 180 178 170 165 160 158 155 154 146 153 153 153 151 140 127 118 111 104 94 81 41 5 351 342 327 326
177 163 120 178 142 146 199 224 222 223 225 236 273 293 272 261 172 179 183 178 173 169 167 163 158 160 157 159 161 158 150 142 135 127 113 100 91 59 41 8 353 334 329 329
208 183 182 180 256 220 219 249 248 280 274 272 139 248 283 21 100 200 173 181 177 178 174 172 170 169 167 168 166 163 161 154 146 132 121 114 100 67 24 5 339 328 328 327
214 155 107 237 229 269 188 247 317 298 299 282 287 283 195 143 158 191 175 182 183 186 181 183 180 179 176 175 173 171 170 159 153 144 144 141 129 91 32 337 329 333 330 322
251 223 187 134 213 217 274 30 217 226 258 256 273 254 296 168 199 205 185 187 187 190 187 190 188 181 183 185 179 177 173 168 161 155 154 163 150 147 268 326 337 331 320 316
260 250 152 173 210 226 184 231 232 298 275 281 296 296 46 358 233 201 205 192 191 195 192 194 187 189 190 186 181 179 176 171 170 168 166 171 176 204 264 315 322 320 315 314
207 244 181 223 79 310 301 257 206 226 212 228 306 282 129 118 251 206 216 198 198 202 198 197 191 190 191 188 185 184 179 179 181 176 181 184 197 226 270 298 309 311 308 308
183 225 220 224 203 216 238 228 236 223 323 238 239 279 170 150 219 228 217 209 207 206 204 198 193 194 193 191 190 185 185 187 185 190 188 199 213 240 267 281 293 301 305 304
27 242 227 243 269 275 208 238 218 215 225 244 246 283 221 198 220 212 228 232 208 214 210 207 197 199 199 196 194 190 189 189 196 197 205 216 229 250 261 271 285 296 299 297
236 236 235 262 286 290 281 257 222 233 237 257 266 278 299 313 294 258 210 232 234 218 216 211 206 205 203 199 199 196 193 194 199 206 212 226 235 251 261 267 278 287 293 294
202 224 252 250 241 260 262 254 251 240 249 255 263 281 308 337 323 273 250 238 233 224 216 211 212 210 207 203 201 200 195 195 200 207 218 232 244 257 266 272 280 282 289 296
186 172 181 243 2 297 290 239 249 247 248 253 266 273 14 297 266 275 265 238 241 233 218 215 215 215 211 207 203 199 197 197 200 213 226 244 255 266 270 273 278 278 288 291
167 176 167 225 218 288 256 23 306 272 264 255 265 270 294 297 331 306 283 263 233 234 227 222 218 217 215 211 200 206 200 201 206 216 238 255 268 272 275 276 278 280 281 288
220 165 153 183 220 286 280 177 234 233 281 37 324 325 338 25 293 268 222 233 242 239 239 232 222 218 214 209 204 203 204 201 211 243 251 265 279 282 282 283 286 286 282 287
94 121 224 164 214 235 78 80 79 216 251 63 36 15 352 266 296 319 57 246 248 255 242 230 222 215 213 208 201 203 193 201 222 236 276 292 292 290 290 291 291 286 279 280
135 220 212 204 252 283 71 134 208 241 44 16 346 324 299 278 307 0 342 324 296 274 251 231 221 215 216 197 195 191 229 218 236 274 286 291 297 296 296 296 294 289 282 281
188 175 188 167 208 259 140 139 214 31 313 327 320 320 306 301 301 299 295 304 302 285 248 220 220 202 185 148 172 149 156 224 324 295 291 292 292 294 297 298 296 290 281 273
222 231 277 216 246 111 186 322 331 315 307 311 312 303 299 300 296 304 306 309 311 304 18 170 113 103 100 108 118 139 20 356 274 286 296 299 300 301 301 298 292 288 272 258
213 180 230 304 155 242 256 280 289 293 281 300 314 313 313 311 312 309 309 330 315 83 98 121 115 122 98 75 76 242 265 313 312 295 299 299 296 296 304 300 293 270 267 262
356 163 230 247 273 279 273 276 341 331 325 307 323 336 326 331 314 324 22 80 74 87 88 95 94 85 72 65 20 335 310 287 280 287 288 284 287 290 291 295 290 290 278 262
189 247 216 254 7 333 320 15 1 323 10 12 356 1 27 360 16 61 76 77 91 91 92 89 82 76 71 270 276 275 275 282 281 278 272 280 290 293 294 293 287 281 271 266